Time,TemperatureF,DewpointF,PressureIn,WindDirection,WindDirectionDegrees,WindSpeedMPH,WindSpeedGustMPH,Humidity,HourlyPrecipIn,Conditions,Clouds,dailyrainin,SoftwareType,DateUTC
2014-01-10 00:02:00,59.0,56.0,30.03,ESE,113,5.0,7.0,89,0.00,,,-99.99,,2014-01-10 06:02:00,
2014-01-10 00:22:00,59.0,56.0,30.02,South,174,4.0,8.0,89,0.00,,,-99.99,,2014-01-10 06:22:00,
2014-01-10 00:33:00,59.0,56.0,30.02,South,174,4.0,8.0,89,0.00,,,-99.99,,2014-01-10 06:33:00,
2014-01-10 00:52:00,59.0,56.0,30.00,SSE,155,2.0,6.0,89,0.00,,,-99.99,,2014-01-10 06:52:00,
2014-01-10 01:02:00,59.0,56.0,30.00,SSE,155,2.0,6.0,89,0.00,,,-99.99,,2014-01-10 07:02:00,
2014-01-10 01:21:00,58.0,55.0,29.99,SE,137,3.0,4.0,90,0.00,,,-99.99,,2014-01-10 07:21:00,
2014-01-10 01:52:00,58.0,55.0,29.98,SE,139,1.0,6.0,91,0.00,,,-99.99,,2014-01-10 07:52:00,
2014-01-10 02:02:00,58.0,55.0,29.98,SE,139,1.0,6.0,91,0.00,,,-99.99,,2014-01-10 08:02:00,
2014-01-10 02:21:00,59.0,56.0,29.96,SE,128,3.0,4.0,91,0.00,,,-99.99,,2014-01-10 08:21:00,
2014-01-10 02:53:00,59.0,-99.9,-100.00,SE,132,4.0,4.0,-999,0.00,,,-99.99,,2014-01-10 08:53:00,
2014-01-10 03:02:00,59.0,-99.9,-100.00,SE,132,4.0,4.0,-999,0.00,,,-99.99,,2014-01-10 09:02:00,
2014-01-10 03:21:00,61.0,57.0,29.94,South,186,4.0,9.0,88,0.00,,,-99.99,,2014-01-10 09:21:00,
2014-01-10 03:33:00,61.0,57.0,29.94,South,186,4.0,9.0,88,0.00,,,-99.99,,2014-01-10 09:33:00,
2014-01-10 03:43:00,61.0,57.0,29.94,South,186,4.0,9.0,88,0.00,,,-99.99,,2014-01-10 09:43:00,
2014-01-10 03:54:00,61.0,57.0,29.94,South,186,4.0,9.0,88,0.00,,,-99.99,,2014-01-10 09:54:00,
2014-01-10 04:23:00,62.0,57.0,29.95,SW,223,3.0,13.0,83,0.00,,,-99.99,,2014-01-10 10:23:00,
2014-01-10 04:42:00,62.0,57.0,29.94,South,171,4.0,10.0,83,0.00,,,-99.99,,2014-01-10 10:42:00,
2014-01-10 04:52:00,62.0,57.0,29.94,South,171,4.0,10.0,83,0.00,,,-99.99,,2014-01-10 10:52:00,
2014-01-10 05:11:00,62.0,57.0,29.93,SSW,204,6.0,10.0,84,0.00,,,-99.99,,2014-01-10 11:11:00,
2014-01-10 05:22:00,62.0,57.0,29.93,SSW,204,6.0,10.0,84,0.00,,,-99.99,,2014-01-10 11:22:00,
2014-01-10 05:33:00,62.0,57.0,29.93,SSW,204,6.0,10.0,84,0.00,,,-99.99,,2014-01-10 11:33:00,
2014-01-10 06:22:00,61.0,56.0,29.93,SW,220,1.0,4.0,84,0.00,,,-99.99,,2014-01-10 12:22:00,
2014-01-10 06:42:00,61.0,56.0,29.93,SSW,206,2.0,3.0,85,0.00,,,-99.99,,2014-01-10 12:42:00,
2014-01-10 06:52:00,61.0,56.0,29.93,SSW,206,2.0,3.0,85,0.00,,,-99.99,,2014-01-10 12:52:00,
2014-01-10 07:22:00,61.0,56.0,29.93,South,180,2.0,7.0,85,0.00,,,-99.99,,2014-01-10 13:22:00,
2014-01-10 07:52:00,60.0,56.0,29.94,SSW,196,2.0,4.0,88,0.00,,,-99.99,,2014-01-10 13:52:00,
2014-01-10 08:11:00,60.0,57.0,29.94,SSW,200,2.0,4.0,90,0.00,,,-99.99,,2014-01-10 14:11:00,
2014-01-10 08:22:00,60.0,57.0,29.94,SSW,200,2.0,4.0,90,0.00,,,-99.99,,2014-01-10 14:22:00,
2014-01-10 08:42:00,60.0,58.0,29.96,SSE,167,2.0,4.0,92,0.00,,,-99.99,,2014-01-10 14:42:00,
2014-01-10 08:52:00,60.0,58.0,29.96,SSE,167,2.0,4.0,92,0.00,,,-99.99,,2014-01-10 14:52:00,
2014-01-10 09:22:00,61.0,58.0,29.96,SW,235,3.0,6.0,89,0.00,,,-99.99,,2014-01-10 15:22:00,
2014-01-10 09:43:00,61.0,57.0,29.97,SW,225,2.0,5.0,88,0.00,,,-99.99,,2014-01-10 15:43:00,
2014-01-10 09:53:00,61.0,57.0,29.97,SW,225,2.0,5.0,88,0.00,,,-99.99,,2014-01-10 15:53:00,
2014-01-10 10:03:00,61.0,57.0,29.97,SW,225,2.0,5.0,88,0.00,,,-99.99,,2014-01-10 16:03:00,
2014-01-10 10:13:00,61.0,57.0,29.97,SW,225,2.0,5.0,88,0.00,,,-99.99,,2014-01-10 16:13:00,
2014-01-10 10:52:00,66.0,59.0,29.95,WSW,255,6.0,16.0,78,0.00,,,-99.99,,2014-01-10 16:52:00,
2014-01-10 11:02:00,66.0,59.0,29.95,WSW,255,6.0,16.0,78,0.00,,,-99.99,,2014-01-10 17:02:00,
2014-01-10 11:22:00,66.0,58.0,29.93,South,178,9.0,16.0,75,0.00,,,-99.99,,2014-01-10 17:22:00,
2014-01-10 11:53:00,67.0,57.0,29.91,SW,219,7.0,17.0,71,0.00,,,-99.99,,2014-01-10 17:53:00,
2014-01-10 12:22:00,67.0,57.0,29.88,WSW,242,7.0,15.0,70,0.00,,,-99.99,,2014-01-10 18:22:00,
2014-01-10 12:52:00,68.0,56.0,29.85,WSW,245,8.0,15.0,65,0.00,,,-99.99,,2014-01-10 18:52:00,
2014-01-10 13:12:00,69.0,56.0,29.84,WSW,245,6.0,15.0,64,0.00,,,-99.99,,2014-01-10 19:12:00,
2014-01-10 13:21:00,69.0,56.0,29.84,WSW,245,6.0,15.0,64,0.00,,,-99.99,,2014-01-10 19:21:00,
2014-01-10 13:32:00,69.0,56.0,29.84,WSW,245,6.0,15.0,64,0.00,,,-99.99,,2014-01-10 19:32:00,
2014-01-10 13:52:00,70.0,54.0,29.82,WNW,286,9.0,16.0,56,0.00,,,-99.99,,2014-01-10 19:52:00,
2014-01-10 14:22:00,70.0,49.0,29.80,West,259,12.0,13.0,47,0.00,,,-99.99,,2014-01-10 20:22:00,
2014-01-10 14:32:00,70.0,49.0,29.80,West,259,12.0,13.0,47,0.00,,,-99.99,,2014-01-10 20:32:00,
2014-01-10 14:42:00,70.0,49.0,29.80,West,259,12.0,13.0,47,0.00,,,-99.99,,2014-01-10 20:42:00,
2014-01-10 14:52:00,70.0,49.0,29.80,West,259,12.0,13.0,47,0.00,,,-99.99,,2014-01-10 20:52:00,
2014-01-10 15:12:00,70.0,48.0,29.80,West,270,7.0,17.0,46,0.00,,,-99.99,,2014-01-10 21:12:00,
2014-01-10 15:21:00,70.0,48.0,29.80,West,270,7.0,17.0,46,0.00,,,-99.99,,2014-01-10 21:21:00,
2014-01-10 15:33:00,70.0,48.0,29.80,West,270,7.0,17.0,46,0.00,,,-99.99,,2014-01-10 21:33:00,
2014-01-10 15:53:00,70.0,46.0,29.79,West,278,7.0,16.0,42,0.00,,,-99.99,,2014-01-10 21:53:00,
2014-01-10 16:03:00,70.0,46.0,29.79,West,278,7.0,16.0,42,0.00,,,-99.99,,2014-01-10 22:03:00,
2014-01-10 16:22:00,70.0,46.0,29.79,West,269,4.0,17.0,42,0.00,,,-99.99,,2014-01-10 22:22:00,
2014-01-10 16:34:00,70.0,46.0,29.79,West,269,4.0,17.0,42,0.00,,,-99.99,,2014-01-10 22:34:00,
2014-01-10 16:53:00,70.0,46.0,29.79,West,269,4.0,17.0,42,0.00,,,-99.99,,2014-01-10 22:53:00,
2014-01-10 17:12:00,69.0,46.0,29.80,WSW,257,5.0,10.0,43,0.00,,,-99.99,,2014-01-10 23:12:00,
2014-01-10 17:22:00,69.0,46.0,29.80,WSW,257,5.0,10.0,43,0.00,,,-99.99,,2014-01-10 23:22:00,
2014-01-10 17:53:00,68.0,46.0,29.80,WSW,249,4.0,10.0,46,0.00,,,-99.99,,2014-01-10 23:53:00,
2014-01-10 18:22:00,65.0,47.0,29.80,SSW,210,4.0,8.0,52,0.00,,,-99.99,,2014-01-11 00:22:00,
2014-01-10 18:52:00,63.0,48.0,29.81,WSW,243,3.0,4.0,57,0.00,,,-99.99,,2014-01-11 00:52:00,
2014-01-10 19:11:00,63.0,48.0,29.81,WSW,243,3.0,4.0,57,0.00,,,-99.99,,2014-01-11 01:11:00,
2014-01-10 19:22:00,63.0,48.0,29.81,WSW,243,3.0,4.0,57,0.00,,,-99.99,,2014-01-11 01:22:00,
2014-01-10 19:32:00,63.0,48.0,29.81,WSW,243,3.0,4.0,57,0.00,,,-99.99,,2014-01-11 01:32:00,
2014-01-10 19:52:00,61.0,48.0,29.82,SW,232,2.0,3.0,62,0.00,,,-99.99,,2014-01-11 01:52:00,
2014-01-10 20:22:00,59.0,47.0,29.83,SW,228,3.0,4.0,65,0.00,,,-99.99,,2014-01-11 02:22:00,
2014-01-10 20:32:00,59.0,47.0,29.83,SW,228,3.0,4.0,65,0.00,,,-99.99,,2014-01-11 02:32:00,
2014-01-10 20:52:00,58.0,47.0,29.84,West,260,1.0,3.0,68,0.00,,,-99.99,,2014-01-11 02:52:00,
2014-01-10 21:22:00,58.0,47.0,29.84,West,260,2.0,6.0,68,0.00,,,-99.99,,2014-01-11 03:22:00,
2014-01-10 21:54:00,57.0,47.0,29.85,WSW,256,3.0,5.0,69,0.00,,,-99.99,,2014-01-11 03:54:00,
2014-01-10 22:23:00,56.0,47.0,29.86,West,281,2.0,5.0,71,0.00,,,-99.99,,2014-01-11 04:23:00,
2014-01-10 22:53:00,55.0,45.0,29.87,WNW,287,4.0,6.0,69,0.00,,,-99.99,,2014-01-11 04:53:00,
2014-01-10 23:22:00,55.0,45.0,29.88,West,274,3.0,8.0,68,0.00,,,-99.99,,2014-01-11 05:22:00,
2014-01-10 23:53:00,54.0,44.0,29.88,West,281,3.0,6.0,70,0.00,,,-99.99,,2014-01-11 05:53:00,